When you browse on this site, cookies collect data to enhance your experience and personalize the content and advertising you see.
Visit our Privacy Policy to learn more. By continuing to use the site, you agree to this use of cookies and data.
  • In United Kingdom
  • List of Countries
  • For 7 days
  • Water Temperature
  • Weather Map
  • Weather Widgets
  • user-avatar
    Login

    Hourly Weather Syców

    Today, 19 August, Monday

    Time Temperature Precipitation Wind Pressure Humidity
    00:00 +23°C° 0.4 mm 2 mps 743 mmHg 75%
    01:00 +23°C° 0.4 mm 2 mps 743 mmHg 77%
    02:00 +21°C° 0.1 mm 2 mps 743 mmHg 80%
    03:00 +22°C° 0.1 mm 1 mps 743 mmHg 83%
    04:00 +22°C° 0.1 mm 1 mps 743 mmHg 86%
    05:00 +21°C° 0.4 mm 2 mps 744 mmHg 86%
    06:00 +21°C° 0.4 mm 2 mps 744 mmHg 86%
    07:00 +23°C° 0.4 mm 2 mps 745 mmHg 86%
    08:00 +24°C° 0.1 mm 3 mps 745 mmHg 81%
    09:00 +25°C° 0.1 mm 3 mps 745 mmHg 76%
    10:00 +26°C° 0.1 mm 3 mps 746 mmHg 70%
    11:00 +26°C° 0.3 mm 3 mps 746 mmHg 66%
    12:00 +27°C° 0.3 mm 3 mps 746 mmHg 62%
    13:00 +27°C° 0.3 mm 3 mps 747 mmHg 58%
    14:00 +25°C° 1.2 mm 3 mps 747 mmHg 67%
    15:00 +22°C° 1.2 mm 3 mps 747 mmHg 76%
    16:00 +20°C° 1.2 mm 3 mps 747 mmHg 86%
    17:00 +20°C° 0 mm 2 mps 747 mmHg 85%
    18:00 +20°C° 0 mm 2 mps 748 mmHg 85%
    19:00 +21°C° 0 mm 1 mps 748 mmHg 85%
    20:00 +20°C° 0 mm 1 mps 749 mmHg 86%
    21:00 +20°C° 0 mm 1 mps 749 mmHg 87%
    22:00 +19°C° 0 mm 1 mps 749 mmHg 88%
    23:00 +19°C° 0 mm 1 mps 749 mmHg 87%

    Tomorrow, 20 August, Tuesday

    Time Temperature Precipitation Wind Pressure Humidity
    00:00 +19°C° 0 mm 1 mps 750 mmHg 87%
    01:00 +19°C° 0 mm 1 mps 750 mmHg 86%
    02:00 +19°C° 0 mm 1 mps 750 mmHg 86%
    03:00 +17°C° 0 mm 0 mps 750 mmHg 85%
    04:00 +17°C° 0 mm 0 mps 750 mmHg 84%
    05:00 +18°C° 0 mm 0 mps 751 mmHg 82%
    06:00 +18°C° 0 mm 0 mps 751 mmHg 79%
    07:00 +21°C° 0 mm 1 mps 751 mmHg 77%
    08:00 +22°C° 0 mm 1 mps 751 mmHg 69%
    09:00 +24°C° 0 mm 2 mps 751 mmHg 60%
    10:00 +25°C° 0 mm 2 mps 751 mmHg 52%
    11:00 +26°C° 0 mm 2 mps 751 mmHg 49%
    12:00 +26°C° 0 mm 3 mps 751 mmHg 45%
    13:00 +27°C° 0 mm 3 mps 750 mmHg 42%
    14:00 +27°C° 0 mm 3 mps 750 mmHg 43%
    15:00 +27°C° 0 mm 3 mps 750 mmHg 44%
    16:00 +27°C° 0 mm 4 mps 749 mmHg 45%
    17:00 +26°C° 0 mm 3 mps 749 mmHg 48%
    18:00 +25°C° 0 mm 3 mps 749 mmHg 51%
    19:00 +24°C° 0 mm 3 mps 749 mmHg 54%
    20:00 +22°C° 0.2 mm 3 mps 749 mmHg 57%
    21:00 +22°C° 0.2 mm 3 mps 750 mmHg 61%
    22:00 +21°C° 0.2 mm 3 mps 750 mmHg 65%
    23:00 +20°C° 0.6 mm 3 mps 750 mmHg 71%

    Day after tomorrow, 21 August, Wednesday

    Time Temperature Precipitation Wind Pressure Humidity
    00:00 +19°C° 0.6 mm 4 mps 750 mmHg 77%
    01:00 +18°C° 0.6 mm 4 mps 750 mmHg 84%
    02:00 +16°C° 0.4 mm 5 mps 750 mmHg 85%
    03:00 +16°C° 0.4 mm 5 mps 750 mmHg 87%
    04:00 +15°C° 0.4 mm 6 mps 750 mmHg 89%
    05:00 +16°C° 0 mm 5 mps 751 mmHg 87%
    06:00 +16°C° 0 mm 5 mps 751 mmHg 86%
    07:00 +17°C° 0 mm 4 mps 752 mmHg 84%
    08:00 +17°C° 0 mm 4 mps 752 mmHg 81%
    09:00 +18°C° 0 mm 4 mps 752 mmHg 78%
    10:00 +19°C° 0 mm 4 mps 753 mmHg 75%
    11:00 +19°C° 0 mm 4 mps 753 mmHg 72%
    12:00 +19°C° 0 mm 4 mps 753 mmHg 70%
    13:00 +20°C° 0 mm 4 mps 753 mmHg 67%
    14:00 +20°C° 0 mm 4 mps 753 mmHg 66%
    15:00 +21°C° 0 mm 3 mps 753 mmHg 65%
    16:00 +21°C° 0 mm 3 mps 752 mmHg 64%
    17:00 +20°C° 0 mm 3 mps 753 mmHg 67%
    18:00 +19°C° 0 mm 2 mps 753 mmHg 71%
    19:00 +18°C° 0 mm 2 mps 753 mmHg 74%
    20:00 +18°C° 0.1 mm 2 mps 753 mmHg 76%
    21:00 +18°C° 0.1 mm 2 mps 753 mmHg 78%
    22:00 +17°C° 0.1 mm 2 mps 753 mmHg 80%
    23:00 +17°C° 0 mm 2 mps 753 mmHg 82%

    22 August, Thursday

    Time Temperature Precipitation Wind Pressure Humidity
    00:00 +17°C° 0 mm 2 mps 753 mmHg 83%
    01:00 +16°C° 0 mm 2 mps 753 mmHg 84%
    02:00 +16°C° 0 mm 2 mps 753 mmHg 85%
    03:00 +16°C° 0 mm 2 mps 752 mmHg 87%
    04:00 +16°C° 0 mm 2 mps 752 mmHg 88%
    05:00 +16°C° 0 mm 2 mps 753 mmHg 86%
    06:00 +16°C° 0 mm 3 mps 753 mmHg 85%
    07:00 +17°C° 0 mm 3 mps 753 mmHg 84%
    08:00 +18°C° 0 mm 3 mps 753 mmHg 79%
    09:00 +19°C° 0 mm 3 mps 753 mmHg 75%
    10:00 +20°C° 0 mm 3 mps 753 mmHg 70%
    11:00 +21°C° 0 mm 3 mps 753 mmHg 68%
    12:00 +21°C° 0 mm 3 mps 753 mmHg 65%
    13:00 +22°C° 0 mm 3 mps 753 mmHg 63%
    14:00 +22°C° 0 mm 3 mps 752 mmHg 62%
    15:00 +23°C° 0 mm 2 mps 752 mmHg 61%
    16:00 +23°C° 0 mm 2 mps 752 mmHg 60%
    17:00 +23°C° 0 mm 2 mps 752 mmHg 62%
    18:00 +21°C° 0 mm 2 mps 752 mmHg 64%
    19:00 +22°C° 0 mm 1 mps 753 mmHg 66%
    20:00 +21°C° 0 mm 1 mps 753 mmHg 66%
    21:00 +21°C° 0 mm 1 mps 753 mmHg 66%
    22:00 +21°C° 0 mm 1 mps 753 mmHg 66%
    23:00 +21°C° 0 mm 1 mps 753 mmHg 67%

    23 August, Friday

    Time Temperature Precipitation Wind Pressure Humidity
    00:00 +20°C° 0 mm 2 mps 753 mmHg 67%
    01:00 +19°C° 0 mm 2 mps 753 mmHg 68%
    02:00 +19°C° 0 mm 2 mps 753 mmHg 70%
    03:00 +18°C° 0 mm 2 mps 753 mmHg 73%
    04:00 +17°C° 0 mm 2 mps 753 mmHg 75%
    05:00 +18°C° 0 mm 3 mps 754 mmHg 75%
    06:00 +18°C° 0 mm 3 mps 754 mmHg 74%
    07:00 +19°C° 0 mm 4 mps 754 mmHg 73%
    08:00 +20°C° 0 mm 4 mps 754 mmHg 68%
    09:00 +22°C° 0 mm 4 mps 754 mmHg 62%
    10:00 +23°C° 0 mm 4 mps 754 mmHg 56%
    11:00 +25°C° 0 mm 4 mps 754 mmHg 55%
    12:00 +25°C° 0 mm 4 mps 754 mmHg 54%
    13:00 +25°C° 0 mm 4 mps 754 mmHg 54%
    14:00 +25°C° 0 mm 4 mps 753 mmHg 53%
    15:00 +25°C° 0 mm 4 mps 753 mmHg 52%
    16:00 +26°C° 0 mm 4 mps 753 mmHg 52%
    17:00 +23°C° 0 mm 4 mps 753 mmHg 55%
    18:00 +22°C° 0 mm 3 mps 753 mmHg 58%
    19:00 +21°C° 0 mm 3 mps 752 mmHg 61%
    20:00 +21°C° 0 mm 4 mps 753 mmHg 59%
    21:00 +20°C° 0 mm 4 mps 753 mmHg 58%
    22:00 +20°C° 0 mm 5 mps 753 mmHg 56%
    23:00 +19°C° 0 mm 5 mps 753 mmHg 60%

    24 August, Saturday

    Time Temperature Precipitation Wind Pressure Humidity
    00:00 +19°C° 0 mm 5 mps 752 mmHg 63%
    01:00 +17°C° 0 mm 5 mps 752 mmHg 67%
    02:00 +17°C° 0 mm 5 mps 752 mmHg 70%
    03:00 +17°C° 0 mm 5 mps 752 mmHg 74%
    04:00 +16°C° 0 mm 5 mps 751 mmHg 77%
    05:00 +17°C° 0 mm 5 mps 751 mmHg 77%
    06:00 +19°C° 0 mm 5 mps 751 mmHg 76%
    07:00 +19°C° 0 mm 6 mps 751 mmHg 76%
    08:00 +21°C° 0 mm 6 mps 751 mmHg 70%
    09:00 +23°C° 0 mm 6 mps 751 mmHg 65%
    10:00 +24°C° 0 mm 6 mps 751 mmHg 59%
    11:00 +26°C° 0 mm 6 mps 750 mmHg 58%
    12:00 +27°C° 0 mm 6 mps 750 mmHg 57%
    13:00 +28°C° 0 mm 5 mps 750 mmHg 56%
    14:00 +28°C° 0 mm 5 mps 749 mmHg 56%
    15:00 +28°C° 0 mm 5 mps 749 mmHg 57%
    16:00 +29°C° 0 mm 5 mps 749 mmHg 58%
    17:00 +27°C° 0 mm 5 mps 749 mmHg 63%
    18:00 +26°C° 0 mm 4 mps 748 mmHg 69%
    19:00 +25°C° 0 mm 4 mps 748 mmHg 74%
    20:00 +23°C° 0 mm 4 mps 748 mmHg 77%
    21:00 +23°C° 0 mm 4 mps 748 mmHg 79%
    22:00 +22°C° 0 mm 4 mps 748 mmHg 82%
    23:00 +22°C° 0 mm 4 mps 748 mmHg 84%
    Show more